Kumejima Airport


Codes: ROKJ/UEO
Name: Kumejima Airport
City:
Country: Japan
Elevation: 23 ft.
Wikipedia:

Photos at Kumejima Airport


   Photos courtesy of SpottingLog. You can add your own sightings and photos by signing up for a free trial today.



No photos found.

Weather at Kumejima Airport


Time (UTC)DescriptionTempratureWindCloud coverageVisibilityPressureHumidity
16-Jun-2024 12:00Light Rain28°C13 mph, S100%10000m1010hPa87%
16-Jun-2024 15:00Light Rain28°C16 mph, S100%10000m1010hPa86%
16-Jun-2024 18:00Light Rain28°C13 mph, SW100%10000m1009hPa87%
16-Jun-2024 21:00Light Rain28°C13 mph, SW100%10000m1009hPa87%
17-Jun-2024 00:00Light Rain28°C18 mph, S100%10000m1009hPa86%
17-Jun-2024 03:00Moderate Rain27°C20 mph, SW100%9712m1009hPa87%
17-Jun-2024 06:00Moderate Rain27°C22 mph, SW100%10000m1008hPa88%
17-Jun-2024 09:00Light Rain27°C22 mph, SW100%10000m1009hPa88%
17-Jun-2024 12:00Light Rain26°C22 mph, SW100%10000m1010hPa87%
17-Jun-2024 15:00Moderate Rain26°C22 mph, SW100%5494m1010hPa90%
17-Jun-2024 18:00Light Rain27°C20 mph, SW100%8165m1008hPa86%
17-Jun-2024 21:00Light Rain27°C20 mph, SW100%10000m1008hPa83%
18-Jun-2024 00:00Moderate Rain26°C16 mph, SW100%7400m1009hPa88%
18-Jun-2024 03:00Moderate Rain26°C16 mph, SW100%10000m1009hPa90%
18-Jun-2024 06:00Moderate Rain25°C16 mph, SW100%6005m1008hPa93%
18-Jun-2024 09:00Moderate Rain26°C18 mph, SW100%10000m1008hPa87%
18-Jun-2024 12:00Moderate Rain26°C16 mph, SW100%10000m1009hPa91%
18-Jun-2024 15:00Light Rain26°C16 mph, SW100%10000m1009hPa88%
18-Jun-2024 18:00Light Rain26°C18 mph, SW100%10000m1008hPa85%
18-Jun-2024 21:00Moderate Rain27°C18 mph, SW100%6527m1009hPa85%
19-Jun-2024 00:00Light Rain27°C18 mph, SW100%10000m1010hPa83%
19-Jun-2024 03:00Light Rain26°C13 mph, S100%10000m1010hPa87%
19-Jun-2024 06:00Light Rain26°C13 mph, S100%7335m1009hPa88%
19-Jun-2024 09:00Moderate Rain26°C18 mph, S100%10000m1009hPa84%
19-Jun-2024 12:00Light Rain26°C16 mph, SW100%10000m1010hPa86%
19-Jun-2024 15:00Light Rain26°C20 mph, SW100%10000m1010hPa86%
19-Jun-2024 18:00Light Rain27°C18 mph, S100%10000m1009hPa76%
19-Jun-2024 21:00Overcast Clouds27°C11 mph, SW100%10000m1009hPa77%
20-Jun-2024 00:00Overcast Clouds27°C13 mph, S100%10000m1010hPa83%
20-Jun-2024 03:00Light Rain27°C16 mph, S100%10000m1010hPa85%
20-Jun-2024 06:00Light Rain27°C13 mph, S100%10000m1009hPa87%
20-Jun-2024 09:00Light Rain27°C11 mph, S100%10000m1009hPa87%
20-Jun-2024 12:00Light Rain28°C13 mph, S100%10000m1010hPa88%
20-Jun-2024 15:00Overcast Clouds28°C16 mph, S100%10000m1010hPa88%
20-Jun-2024 18:00Light Rain28°C16 mph, SW100%10000m1008hPa89%
20-Jun-2024 21:00Light Rain27°C16 mph, SW100%10000m1008hPa89%
21-Jun-2024 00:00Light Rain28°C16 mph, SW100%10000m1009hPa89%
21-Jun-2024 03:00Light Rain28°C16 mph, SW100%10000m1009hPa90%
21-Jun-2024 06:00Light Rain28°C16 mph, SW100%10000m1008hPa89%
21-Jun-2024 09:00Light Rain28°C13 mph, SW100%10000m1008hPa89%